Location: Newark
(13.6797°N, 8.5297°E)
Time: 04:30:26
(UTC+00:00)

A-11 Canister half - Pass Details

Date: 19 January 2020
Orbit: 1517 x 1683 km, 47.2° (Epoch: 17 February)

Event Time Altitude Azimuth Distance (km) Brightness Sun altitude
Rises 20:20:26 0° 188° (S) 4,838 11.9 -42.8°
Reaches altitude 10° 20:24:38 10° 173° (S) 3,823 11.1 -43.8°
Enters shadow 20:25:39 13° 169° (SSE) 3,616 10.9 -44.0°
Maximum altitude 20:31:28 22° 128° (SE) 2,965 - -45.4°
Drops below altitude 10° 20:38:07 10° 82° (E) 3,733 - -46.9°
Sets 20:42:05 0° 68° (ENE) 4,694 - -47.9°
